Home   Weather   Louisville   Past weeks

Flag for USA Past Weather in Louisville, Kentucky, USA — Yesterday and Last 2 Weeks

47 °F


Feels Like: 46 °F
Forecast: 47 / 72 °F
Wind: 3 mph from Southeast

Location: Standiford Field

Current Time: Oct 23, 2016 at 2:23:24 AM

Latest Report: Oct 23, 2016 at 1:56 AM

Visibility: 10 mi

Pressure: 30.13 "Hg

Humidity: 74%

Dew Point: 39 °F

Location of LouisvilleLocation

Past Weather in Louisville — Graph


Louisville Temperature Yesterday

Maximum temperature yesterday: 62 °F (at 3:56 PM)
Minimum temperature yesterday: 42 °F (at 7:56 AM)
Average temperature yesterday: 52 °F

High & Low Weather Summary for the Past Weeks

High86 °F (Oct 18, 3:56 PM)94% (Oct 20, 11:01 AM)30.40 "Hg (Oct 20, 11:01 AM)
Low42 °F (Oct 22, 7:56 AM)25% (Oct 8, 3:56 PM)29.80 "Hg (Oct 17, 5:56 PM)
Average66 °F61%30.11 "Hg
* Reported Oct 8 12:56 AM — Oct 23 12:56 AM, Louisville, Weather by CustomWeather, © 2016

Note: Actual official high and low records may vary slightly from our data, if they occured in-between our weather recording intervals... More about our weather records


Louisville Weather History for the Previous 24 Hours

Scroll right to see more
Time TempWeatherWind HumidityBarometerVisibility
12:56 AM
Sun, Oct 23
47 °FClear.3 mph74%30.12 "Hg10 mi
11:56 PM
Sat, Oct 22
48 °FClear.5 mph68%30.11 "Hg10 mi
10:56 PM51 °FClear.5 mph59%30.11 "Hg10 mi
9:56 PM52 °FClear.5 mph55%30.11 "Hg10 mi
8:56 PM54 °FClear.5 mph51%30.11 "Hg10 mi
7:56 PM56 °FClear.3 mph46%30.11 "Hg10 mi
6:56 PM57 °FClear.7 mph41%30.10 "Hg10 mi
5:56 PM61 °FSunny.8 mph35%30.09 "Hg10 mi
4:56 PM62 °FPassing clouds.9 mph34%30.09 "Hg10 mi
3:56 PM62 °FPassing clouds.8 mph34%30.09 "Hg10 mi
2:56 PM60 °FSunny.6 mph36%30.11 "Hg10 mi
1:56 PM59 °FPassing clouds.7 mph36%30.14 "Hg10 mi
12:56 PM57 °FPassing clouds.5 mph39%30.16 "Hg10 mi
11:56 AM55 °FPassing clouds.3 mph39%30.17 "Hg10 mi
10:56 AM53 °FPassing clouds.9 mph45%30.16 "Hg10 mi
9:56 AM50 °FSunny.6 mph63%30.15 "Hg10 mi
8:56 AM46 °FSunny.5 mph79%30.14 "Hg8 mi
7:56 AM42 °FPassing clouds.7 mph85%30.12 "Hg10 mi
6:56 AM45 °FPassing clouds.6 mph82%30.11 "Hg10 mi
5:56 AM44 °FPassing clouds.6 mph82%30.10 "Hg10 mi
4:56 AM48 °FPassing clouds.6 mph74%30.08 "Hg10 mi
3:56 AM48 °FPassing clouds.7 mph77%30.08 "Hg10 mi
2:56 AM45 °FPassing clouds.6 mph80%30.09 "Hg10 mi
Weather by CustomWeather, © 2016

See weather overviewHow to use our weather pages